Location: Blienschwiller
(48.3416°N, 7.4182°E)
Time: 02:14:30
(UTC+00:00)

COSMO-SKYMED 1 - Pass Details

Date: 18 February 2020
Orbit: 621 x 623 km, 97.9° (Epoch: 03 April)

Event Time Altitude Azimuth Distance (km) Brightness Sun altitude
Rises 05:54:29 0° 210° (SSW) 2,894 5.8 -7.1°
Reaches altitude 10° 05:57:28 10° 233° (SW) 1,994 4.8 -6.6°
Maximum altitude 06:00:05 16° 271° (W) 1,659 4.1 -6.2°
Drops below altitude 10° 06:02:43 10° 308° (NW) 2,005 4.6 -5.8°
Sets 06:05:45 0° 331° (NNW) 2,918 5.6 -5.3°
